Regional Weather Roundup
Issued by NWS Wilmington, NC

Home | Current Version | Previous Version | Text Only | Print | Product List | Glossary On
Versions: 1 2 3 4 5 6 7 8 9 10 11 12 13 14 15 16 17 18 19 20 21 22 23 24 25 26 27 28 29 30 31 32 33 34 35 36 37 38 39 40 41 42 43 44 45 46 47 48 49 50
297
ASUS42 KILM 301213
RWRILM
RWRILM
REGIONAL HOURLY WEATHER ROUNDUP
NATIONAL WEATHER SERVICE WILMINGTON NC
800 AM EDT SUN APR 30 2017

NOTE: "FAIR" INDICATES FEW OR NO CLOUDS BELOW 12,000 FEET WITH NO
SIGNIFICANT WEATHER AND/OR OBSTRUCTIONS TO VISIBILITY.

...............WFO WILMINGTON COUNTY WARNING AREA...............

......COASTAL NC AND SC COUNTIES......

CITY           SKY/WX    TMP DP  RH WIND       PRES   REMARKS
WILMINGTON     MOSUNNY   75  72  90 S8        30.20R
N MYRTLE BEACH MOSUNNY   75  72  90 S8        30.20R
MYRTLE BEACH   SUNNY     75  72  88 S12       30.20R

......INLAND NC AND SC COUNTIES.......

CITY           SKY/WX    TMP DP  RH WIND       PRES   REMARKS
LUMBERTON      CLOUDY    72  71  97 S5        30.20R
ELIZABETHTOWN  CLOUDY    73  72  99 S3        30.21R
WHITEVILLE     PTSUNNY   72  71  95 S5        30.20R
FLORENCE       CLOUDY    70  70 100 S6        30.20R FOG
DARLINGTON     CLOUDY    72  69  90 S6        30.21R
KINGSTREE      FOG       68  66  94 CALM      30.19R VSB<1/4
HARTSVILLE     CLOUDY    70  68  94 S5        30.20R
BENNETTSVILLE  CLOUDY    73  72  94 S3        30.20R
CONWAY         FAIR      68  68 100 CALM      30.20R FOG
GEORGETOWN     FAIR      72  72 100 S3        30.20R
MARION         FAIR      70  68  94 CALM      30.20R FOG

....................REST OF NORTH CAROLINA......................

.........EASTERN NC.........

CITY           SKY/WX    TMP DP  RH WIND       PRES   REMARKS
CAPE HATTERAS  SUNNY     74  70  87 VRB6      30.23R FOG
JACKSONVILLE   FOG       70  70 100 S5        30.22R VSB 1/2
MOREHEAD CITY  SUNNY     74  73  97 SW12      30.22R
KENANSVILLE    CLOUDY    73  70  88 CALM      30.22R
NEW BERN       PTSUNNY   72  72 100 SW7       30.22S
ELIZABETH CITY LGT RAIN  73  69  87 SW10      30.20R

.........CENTRAL NC.........

CITY           SKY/WX    TMP DP  RH WIND       PRES   REMARKS
RALEIGH DURHAM PTSUNNY   72  68  87 S9        30.20R
ROCKY MOUNT    PTSUNNY   73  69  87 S12       30.21R
ROANOKE RAPIDS NOT AVBL
FAYETTEVILLE   CLOUDY    74  70  87 SW10      30.20R
HOFFMAN        PTSUNNY   71  68  88 S6        30.20R

.........WESTERN NC.........

CITY           SKY/WX    TMP DP  RH WIND       PRES   REMARKS
CHARLOTTE      PTSUNNY   71  65  81 S6        30.19S
GREENSBORO     PTSUNNY   69  66  90 SW13      30.19R
HICKORY        NOT AVBL
BOONE          NOT AVBL
ASHEVILLE      NOT AVBL

.....................REST OF SOUTH CAROLINA.....................

.........EASTERN SC.........

CITY           SKY/WX    TMP DP  RH WIND       PRES   REMARKS
CHARLESTON     MOSUNNY   73  70  90 S8        30.18R
BEAUFORT MCAS  MOSUNNY   76  73  91 S7        30.17R
HILTON HEAD    PTSUNNY   75  73  94 S7        30.17R

.........CENTRAL SC.........

CITY           SKY/WX    TMP DP  RH WIND       PRES   REMARKS
COLUMBIA       CLOUDY    74  68  81 S5        30.17R
ORANGEBURG     CLOUDY    73  70  90 S8        30.18R
SUMTER SHAW    PTSUNNY   73  70  88 S6        30.17R

.........WESTERN SC.........

CITY           SKY/WX    TMP DP  RH WIND       PRES   REMARKS
GREENVILLE     NOT AVBL
ROCK HILL      PTSUNNY   72  66  81 S6        30.19S
ANDERSON       PTSUNNY   69  66  90 SE7       30.14S
CLEMSON        NOT AVBL
GREENWOOD      MOSUNNY   70  66  87 S9        30.16S


...................COASTAL AND OFFSHORE REPORTS..................

................LOCAL PIERS AND NC RESERVE................


STATION/POSITION TIME  SKY/WX   TEMP    WIND        PRES    VSBY
                                AIR SEA DIR/SP/G
                 (UTC)          (F)     (DEG/KT/KT) (MB)    (MI)
JOHNY MRCER PIER 1148            72 71  180/ 11/ 12 1021.9R
NC RESRV MASNBRO 1045            71     230/  3     1023.0
OCEAN CREST PIER NOT AVBL
SPRINGMAID  PIER 1148                               1021.8R


................COASTAL AND OFFSHORE BUOYS................


STATION/POSITION TIME  SKY/WX   TEMP    WIND        PRES    VSBY
                                AIR SEA DIR/SP/G
                 (UTC)          (F)     (DEG/KT/KT) (MB)    (MI)
DIMNDSHOAL 41025 1150            76 74  230/ 14/ 16 1023.6R
WVE H/P(F/S)=  3/ 4 SWL H/P/D(F/S/D)=  2/140/ 7

CAPE LOOKOUT     1200            74     210/ 10/ 12 1023.0R
ONSLOW BAY 41036 NOT AVBL
ONSLOW BAY 41064 1108            73     210/  8/ 12 1023.3R
ONSLOW BAY 41159 1143               73                N/A
WVE H/P(F/S)=  3/ 6

MASNBO INL 41110 1159               71                N/A
WVE H/P(F/S)=  3/ 6

WILM HARBR 41108 1147               73                N/A
WVE H/P(F/S)=  3/ 6

27SE WRITB 41037 1108            74 73  190/  8/ 12 1022.2R
FRYING PAN 41013 1150            75 74  170/ 14/ 16 1023.0S
WVE H/P(F/S)=  4/ 7 SWL H/P/D(F/S/D)=  2/140/ 7

SUNST NRSH 41024 1108            73 72  170/  6/  8 1022.1F
CAPRS NRSH 41029 1108            76 74  180/ 12/ 16 1021.3S
EDISTO     41004 1150            76 75  160/ 14/ 16 1021.8R
WVE H/P(F/S)=  3/ 7 SWL H/P/D(F/S/D)=  2/130/ 7



..........OFFSHORE BUOYS BEYOND 100 NM OFFSHORE...........
.....IN A TRIANGLE---HAT TO BERMUDA TO BAHAMAS TO HAT.....


STATION/POSITION TIME  SKY/WX   TEMP    WIND        PRES    VSBY
                                AIR SEA DIR/SP/G
                 (UTC)          (F)     (DEG/KT/KT) (MB)    (MI)
150E HAT   41001 1200            74 73  220/ 12/ 14 1025.0
W BERMUDA  41048 1200            72 72  190/  4/  6 1027.7
ATLANTIC S 41049 1150            72 73   60/ 10/ 12 1026.3R
WVE H/P(F/S)=  4/ 8 SWL H/P/D(F/S/D)=  3/ 90/ 8

E BAHAMAS  41046 1200            76 77   80/ 16/ 21 1022.6
NE BAHAMAS 41047 1200            74 76   80/ 14/ 17 1025.5
120E CANVRL41010 1200            77 78  120/ 17/ 21 1022.0

END




USA.gov is the U.S. government's official web portal to all federal, state and local government web resources and services.